Airfield :
LOGIN :

Register | Disclaimer

   EN    FR    IT 

 










Legend :    VFR   Marginal VFR   IFR   Intensive IFR   Very Intensive IFR
Visi :
Ceiling :
>= 8 km
>= 3000ft
5 to 8 km
1000 to 3000 ft
1500m to 5 km
500 to 1000 ft
800 to 1500m
200 to 500 ft
< 800m
< 200 ft
Symbols :   Thunderstorms  Fog  Heavy snow  Heavy precipitations  Wind > 20 kt
SIGMETs :     Misc.  Thunderstorms  Icing  Turbulence  Mountain Waves  Volcanic Ashes







- Airport Elevation : 120 ft
- IATA code : MME
- Download approach charts


EGNV - Durham Tees valley

CURRENT METAR :
  • 191650Z 03005KT 350V060 CAVOK 17/09 Q1031

EXPIRED METARs :
  • 191620Z 03005KT CAVOK 17/09 Q1031
  • 191550Z 04007KT CAVOK 17/09 Q1031
  • 191520Z 04007KT CAVOK 17/08 Q1031
  • 191450Z 04006KT 020V080 CAVOK 17/08 Q1031
  • 191420Z 04007KT 350V090 CAVOK 17/08 Q1031

TAF TAF EGNV
Valid from the 19 at 15:00 until the 19 at 21:00 UTC


191401Z 1915/1921 06005KT 9999 FEW030
ATIS : +44 9012 018 111
No reported NOTAMs for that airfield.



MET'MAP, your aeronautical weather chart ! - Copyright ORBIFLY December 2007 - Disclaimer

ORBIFLY MET'MAP TEAM :

Programming & Development : Alexandra Zaïnal
Concept & Development : Baudouin d'Aumeries
Co-Development & Prog : Marc-Olivier Méhu
Technical & hardware support : Manuel Goepfert

Contact : metmap@orbifly.com




SOURCES & CREDITS :

   NOAA